Regional Weather Roundup
Issued by NWS Little Rock, AR

Home | Current Version | Previous Version | Graphics & Text | Print | Product List | Glossary On
Versions: 1 2 3 4 5 6 7 8 9 10 11 12 13 14 15 16 17 18 19 20 21 22 23 24 25 26 27 28 29 30 31 32
000
ASUS44 KLZK 201805
RWRLZK

WEATHER ROUNDUP FOR ARKANSAS
NATIONAL WEATHER SERVICE LITTLE ROCK AR
1200 PM CST MON NOV 20 2017

NOTE: "FAIR" INDICATES FEW OR NO CLOUDS BELOW 12,000 FEET WITH NO
SIGNIFICANT WEATHER AND/OR OBSTRUCTIONS TO VISIBILITY.

ARZ001-003-010-029-201900-
NORTHWEST ARKANSAS

CITY           SKY/WX    TMP DP  RH WIND       PRES   REMARKS
FAYETTEVILLE   SUNNY     58  28  32 S15G24    30.07F
6HR MIN TEMP:  25; 6HR MAX TEMP:  58;

FORT SMITH     SUNNY     60  32  34 SW8       30.10F
6HR MIN TEMP:  34; 6HR MAX TEMP:  60;

HARRISON       SUNNY     58  25  28 S14G22    30.06F
6HR MIN TEMP:  31; 6HR MAX TEMP:  58;

BENTONVILLE    SUNNY     56  27  32 S16G26    30.06
6HR MIN TEMP:  37; 6HR MAX TEMP:  56;

ROGERS         SUNNY     57  28  33 S17G29    30.05F
6HR MIN TEMP:  34; 6HR MAX TEMP:  57;

SILOAM SPGS    SUNNY     56  29  35 S20G26    30.06F
6HR MIN TEMP:  37; 6HR MAX TEMP:  57;

HIGHFILL       SUNNY     57  27  31 S22G28    30.05F
6HR MIN TEMP:  35; 6HR MAX TEMP:  57; 6HR PCP: TRACE;

SPRINGDALE     SUNNY     57  27  30 S17G29    30.08F
$$

ARZ004-005-016-201900-
NORTH CENTRAL ARKANSAS

CITY           SKY/WX    TMP DP  RH WIND       PRES   REMARKS
BATESVILLE     SUNNY     54  26  34 S13       30.15F
6HR MIN TEMP:  33; 6HR MAX TEMP:  54;

FLIPPIN        SUNNY     59  27  29 VRB7      30.08F
6HR MIN TEMP:  25; 6HR MAX TEMP:  59;

MTN HOME       SUNNY     57  27  31 S7G17     30.08F
6HR MIN TEMP:  31; 6HR MAX TEMP:  57;

$$

ARZ040-041-201900-
WEST CENTRAL ARKANSAS

CITY           SKY/WX    TMP DP  RH WIND       PRES   REMARKS
MENA           SUNNY     59  32  36 S7        30.13F
MOUNT IDA      SUNNY     58  32  37 VRB6      30.12F
6HR MIN TEMP:  27; 6HR MAX TEMP:  59;

$$

ARZ009-017-025-026-028-201900-
NORTHEAST ARKANSAS

CITY           SKY/WX    TMP DP  RH WIND       PRES   REMARKS
JONESBORO      SUNNY     52  29  41 SW12      30.17F
6HR MIN TEMP:  28; 6HR MAX TEMP:  52;

NEWPORT        SUNNY     53  27  36 S16       30.18F
6HR MIN TEMP:  29; 6HR MAX TEMP:  53;

WALNUT RIDGE     N/A    N/A N/A N/A MISG        N/A
6HR MIN TEMP:  28; 6HR MAX TEMP:  51;

BLYTHEVILLE    SUNNY     50  29  44 SW10      30.20F
6HR MIN TEMP:  31; 6HR MAX TEMP:  50;

$$

ARZ022-023-033-042-044-201900-
CENTRAL ARKANSAS

CITY           SKY/WX    TMP DP  RH WIND       PRES   REMARKS
LITTLE ROCK    MOSUNNY   56  26  31 S8        30.18F
6HR MIN TEMP:  29; 6HR MAX TEMP:  56;

N LITTLE ROCK    N/A     55  28  36 SW7       30.20F
6HR MIN TEMP:  38; 6HR MAX TEMP:  55;

JACKSONVILLE   SUNNY     55  27  34 S10       30.17F
6HR MIN TEMP:  25; 6HR MAX TEMP:  55;

SEARCY         SUNNY     55  29  36 S9        30.18F
6HR MIN TEMP:  26; 6HR MAX TEMP:  55;

HOT SPRINGS    SUNNY     57  27  31 S9        30.16F
6HR MIN TEMP:  30; 6HR MAX TEMP:  57;

RUSSELLVILLE   SUNNY     56  29  35 SE10      30.13F
6HR MIN TEMP:  28; 6HR MAX TEMP:  56;

CLINTON        FAIR      55  28  35 S12       30.15F
$$

ARZ036-201900-
EAST ARKANSAS

CITY           SKY/WX    TMP DP  RH WIND       PRES   REMARKS
WEST MEMPHIS   SUNNY     49  29  46 S8        30.19F
6HR MIN TEMP:  25; 6HR MAX TEMP:  50;

$$

ARZ050-053-066-070-073-201900-
SOUTHWEST ARKANSAS

CITY           SKY/WX    TMP DP  RH WIND       PRES   REMARKS
ARKADELPHIA    FAIR      58  30  34 S6        30.18F
6HR MIN TEMP:  25; 6HR MAX TEMP:  59;

CAMDEN         SUNNY     59  27  29 VRB6      30.19F
TEXARKANA      SUNNY     58  31  35 S9        30.17F
6HR MIN TEMP:  35; 6HR MAX TEMP:  59;

EL DORADO      SUNNY     55  31  39 S8        30.20F
6HR MIN TEMP:  30; 6HR MAX TEMP:  55;

DE QUEEN       SUNNY     58  34  40 S9        30.14F
6HR MIN TEMP:  28; 6HR MAX TEMP:  59;

$$

ARZ056-057-069-201900-
SOUTHEAST ARKANSAS

CITY           SKY/WX    TMP DP  RH WIND       PRES   REMARKS
PINE BLUFF     SUNNY     55  26  32 S10       30.19F
6HR MIN TEMP:  27; 6HR MAX TEMP:  55;

STUTTGART      SUNNY     53  28  38 S12       30.20F
6HR MIN TEMP:  33; 6HR MAX TEMP:  53;

MONTICELLO     CLOUDY    54  28  36 SE8       30.21F
6HR MIN TEMP:  32; 6HR MAX TEMP:  54;


$$






USA.gov is the U.S. government's official web portal to all federal, state and local government web resources and services.